Location: Ahstedt
(52.2048°N, 10.1060°E)
Time: 21:28:36
(UTC+00:00)

Cosmos 2082 Rocket - Pass Details

Date: 13 April 2026
Orbit: 831 x 853 km, 71.0° (Epoch: 19 May)

Event Time Altitude Azimuth Distance (km) Brightness Sun altitude
Exits shadow 01:29:20 21° 150° (SSE) 1,808 3.7 -22.8°
Maximum altitude 01:32:02 32° 106° (ESE) 1,437 3.5 -22.6°
Drops below altitude 10° 01:37:00 10° 45° (NE) 2,493 5.8 -22.2°
Sets 01:39:42 0° 36° (NE) 3,434 6.9 -21.9°
